Hailey, ID

8:14 AM MDT on May 26, 2017 (GMT -0600)
Friedman Memorial

Weather History for KSUN - August, 2013

Change the Weather History Date:

Sunday, August 4, 2013

  Actual Average Record
Temperature  
Mean Temperature 70 °F -  
Max Temperature 86 °F 83 °F 91 °F (1999)
Min Temperature 53 °F 53 °F 33 °F (1996)
Cooling Degree Days 4    
Growing Degree Days 20 (Base 50)    
Moisture  
Dew Point 31 °F    
Average Humidity 29    
Maximum Humidity 38    
Minimum Humidity 16    
Precipitation  
Precipitation 0.00 in - - ()
Sea Level Pressure  
Sea Level Pressure 30.14 in    
Wind  
Wind Speed 10 mph (WNW)    
Max Wind Speed 15 mph    
Max Gust Speed 17 mph    
Visibility 10 miles    
Events      
Averages and records for this station are not official NWS values.
T = Trace of Precipitation, MM = Missing Value Source: NWS Daily Summary

Daily Weather History Graph

Daily Weather History Graph

Search for Another Location

Airport or City:

Trip Planner

Search our weather history database for the weather conditions in past years. The results will help you decide how hot, cold, wet, or windy it might be!

Date:

Astronomy

Aug. 04, 2013 Rise Set
Actual Time 6:30 AM MDT 8:55 PM MDT
Civil Twilight 5:58 AM MDT 9:27 PM MDT
Nautical Twilight 5:18 AM MDT 10:07 PM MDT
Astronomical Twilight 4:32 AM MDT 10:52 PM MDT
Moon 4:34 AM MDT (8/4) 7:21 PM MDT (8/4)
Length of Visible Light 15h 29m
Length of Day
14h 25m
Waning Crescent, 4% of the Moon is Illuminated
Aug 4
Waning Crescent
Aug 6
New
Aug 14
First Quarter
Aug 20
Full
Aug 28
Last Quarter

Hourly Weather History & Observations

Time (MDT) Temp. Dew Point Humidity Pressure Visibility Wind Dir Wind Speed Gust Speed Precip Events Conditions
12:15 AM 60.8 °F 32.0 °F 34% 30.12 in 10.0 mi WNW 10.4 mph - N/A   Clear
12:35 AM 62.6 °F 32.0 °F 32% 30.12 in 10.0 mi NW 10.4 mph - N/A   Clear
12:55 AM 60.8 °F 32.0 °F 34% 30.13 in 10.0 mi WNW 9.2 mph - N/A   Clear
1:15 AM 60.8 °F 30.2 °F 31% 30.14 in 10.0 mi WNW 9.2 mph - N/A   Clear
1:35 AM 60.8 °F 30.2 °F 31% 30.14 in 10.0 mi WNW 9.2 mph - N/A   Clear
1:55 AM 60.8 °F 30.2 °F 31% 30.14 in 10.0 mi NW 11.5 mph - N/A   Clear
2:15 AM 59.0 °F 30.2 °F 34% 30.14 in 10.0 mi NW 12.7 mph - N/A   Clear
2:35 AM 59.0 °F 30.2 °F 34% 30.14 in 10.0 mi NW 12.7 mph - N/A   Clear
2:55 AM 59.0 °F 30.2 °F 34% 30.13 in 10.0 mi WNW 12.7 mph - N/A   Clear
3:15 AM 59.0 °F 30.2 °F 34% 30.14 in 10.0 mi WNW 10.4 mph - N/A   Clear
3:35 AM 57.2 °F 28.4 °F 33% 30.14 in 10.0 mi NW 10.4 mph - N/A   Clear
3:55 AM 55.4 °F 28.4 °F 36% 30.14 in 10.0 mi NW 9.2 mph - N/A   Clear
4:15 AM 55.4 °F 28.4 °F 36% 30.14 in 10.0 mi WNW 12.7 mph - N/A   Clear
4:35 AM 55.4 °F 28.4 °F 36% 30.15 in 10.0 mi NW 15.0 mph - N/A   Clear
4:55 AM 55.4 °F 28.4 °F 36% 30.15 in 10.0 mi NW 10.4 mph - N/A   Clear
5:15 AM 55.4 °F 28.4 °F 36% 30.15 in 10.0 mi NW 10.4 mph - N/A   Clear
5:35 AM 55.4 °F 28.4 °F 36% 30.15 in 10.0 mi NW 13.8 mph 17.3 mph N/A   Clear
5:55 AM 55.4 °F 28.4 °F 36% 30.15 in 10.0 mi WNW 15.0 mph - N/A   Clear
6:15 AM 55.4 °F 28.4 °F 36% 30.16 in 10.0 mi NW 12.7 mph 17.3 mph N/A   Clear
6:35 AM 55.4 °F 28.4 °F 36% 30.16 in 10.0 mi NW 10.4 mph 17.3 mph N/A   Clear
6:47 AM 55.4 °F 28.4 °F 36% 30.17 in 10.0 mi WNW 15.0 mph - N/A   Partly Cloudy
6:55 AM 53.6 °F 28.4 °F 38% 30.16 in 10.0 mi NW 11.5 mph - N/A   Clear
7:47 AM 55.4 °F 28.4 °F 36% 30.18 in 10.0 mi NW 11.5 mph 17.3 mph N/A   Partly Cloudy
8:47 AM 60.8 °F 32.0 °F 34% 30.19 in 10.0 mi NNW 8.1 mph - N/A   Partly Cloudy
9:47 AM 68.0 °F 33.8 °F 28% 30.19 in 10.0 mi NW 5.8 mph - N/A   Clear
10:47 AM 75.2 °F 30.2 °F 19% 30.18 in 10.0 mi SE 6.9 mph - N/A   Clear
11:47 AM 78.8 °F 33.8 °F 20% 30.18 in 10.0 mi ESE 11.5 mph - N/A   Clear
12:47 PM 80.6 °F 33.8 °F 18% 30.17 in 10.0 mi ESE 10.4 mph - N/A   Partly Cloudy
1:47 PM 82.4 °F 33.8 °F 17% 30.15 in 10.0 mi ESE 10.4 mph - N/A   Partly Cloudy
2:47 PM 84.2 °F 33.8 °F 16% 30.14 in 10.0 mi SE 8.1 mph - N/A   Partly Cloudy
3:50 PM 86.0 °F 37.4 °F 18% 30.11 in 10.0 mi South 4.6 mph 16.1 mph N/A   Partly Cloudy
4:47 PM 86.0 °F 35.6 °F 17% 30.09 in 10.0 mi SW 8.1 mph - N/A   Partly Cloudy
5:55 PM 68.0 °F 35.6 °F 30% 30.09 in 10.0 mi SSE 6.9 mph 17.3 mph N/A   Partly Cloudy
6:47 PM 84.2 °F 35.6 °F 18% 30.08 in 10.0 mi South 6.9 mph - N/A   Partly Cloudy
7:47 PM 82.4 °F 32.0 °F 16% 30.08 in 10.0 mi SW 9.2 mph - N/A   Partly Cloudy
8:47 PM 73.4 °F 37.4 °F 27% 30.08 in 10.0 mi Calm Calm - N/A   Clear
9:53 PM 73.4 °F 32.0 °F 22% 30.09 in 10.0 mi NW 10.4 mph - N/A   Clear
10:47 PM 69.8 °F 33.8 °F 27% 30.10 in 10.0 mi WNW 11.5 mph - N/A   Clear
11:15 PM 68.0 °F 33.8 °F 28% 30.10 in 10.0 mi WNW 9.2 mph - N/A   Clear
11:35 PM 68.0 °F 32.0 °F 26% 30.11 in 10.0 mi NW 6.9 mph - N/A   Clear
11:55 PM 64.4 °F 33.8 °F 32% 30.11 in 10.0 mi NNW 5.8 mph - N/A   Clear